TimeHST,TemperatureF,Dew PointF,Humidity,Sea Level PressureIn,VisibilityMPH,Wind Direction,Wind SpeedMPH,Gust SpeedMPH,PrecipitationIn,Events,Conditions,WindDirDegrees,DateUTC
12:53 AM,68.0,63.0,84,29.83,10.0,West,6.9,-,N/A,,Clear,270,2012-02-05 10:53:00
1:53 AM,64.9,62.1,90,29.82,10.0,West,5.8,-,N/A,,Clear,260,2012-02-05 11:53:00
2:33 AM,66.2,62.6,88,29.81,10.0,WNW,4.6,-,N/A,,Partly Cloudy,290,2012-02-05 12:33:00
2:53 AM,64.0,61.0,90,29.80,10.0,WNW,10.4,-,N/A,,Partly Cloudy,290,2012-02-05 12:53:00
3:53 AM,64.0,60.1,87,29.80,10.0,NW,6.9,-,N/A,,Clear,320,2012-02-05 13:53:00
4:53 AM,64.9,61.0,87,29.78,10.0,WNW,6.9,-,N/A,,Clear,300,2012-02-05 14:53:00
5:53 AM,64.0,60.1,87,29.80,10.0,Calm,Calm,-,N/A,,Clear,0,2012-02-05 15:53:00
6:53 AM,63.0,60.1,90,29.81,10.0,West,6.9,-,N/A,,Clear,280,2012-02-05 16:53:00
7:53 AM,64.9,61.0,87,29.83,10.0,West,8.1,-,N/A,,Clear,280,2012-02-05 17:53:00
8:53 AM,73.9,64.9,73,29.86,10.0,WNW,5.8,-,N/A,,Clear,290,2012-02-05 18:53:00
9:53 AM,75.0,66.0,73,29.88,10.0,East,5.8,-,N/A,,Partly Cloudy,90,2012-02-05 19:53:00
10:53 AM,78.1,66.9,68,29.88,10.0,ENE,8.1,-,N/A,,Partly Cloudy,70,2012-02-05 20:53:00
11:53 AM,79.0,66.9,66,29.87,10.0,NNE,10.4,-,N/A,,Overcast,20,2012-02-05 21:53:00
12:53 PM,77.0,66.0,69,29.85,10.0,North,13.8,-,N/A,,Overcast,360,2012-02-05 22:53:00
1:53 PM,72.0,66.0,81,29.85,10.0,North,18.4,-,N/A,,Overcast,10,2012-02-05 23:53:00
2:53 PM,70.0,66.0,87,29.84,3.0,NE,12.7,-,0.01,Rain,Rain,40,2012-02-06 00:53:00
3:44 PM,69.8,66.2,88,29.85,2.5,Calm,Calm,-,0.01,Rain,Light Rain,0,2012-02-06 01:44:00
3:51 PM,71.6,66.2,83,29.86,6.0,Calm,Calm,-,0.02,Rain,Light Rain,0,2012-02-06 01:51:00
3:53 PM,71.1,66.0,84,29.85,8.0,Calm,Calm,-,0.02,Rain,Light Rain,0,2012-02-06 01:53:00
4:53 PM,73.0,63.0,71,29.86,10.0,North,11.5,-,0.00,,Overcast,10,2012-02-06 02:53:00
5:53 PM,71.1,63.0,75,29.88,10.0,North,9.2,-,N/A,,Overcast,360,2012-02-06 03:53:00
6:53 PM,70.0,62.1,76,29.89,10.0,North,5.8,-,N/A,,Mostly Cloudy,350,2012-02-06 04:53:00
7:53 PM,70.0,63.0,78,29.91,10.0,NNE,9.2,-,N/A,,Overcast,20,2012-02-06 05:53:00
8:53 PM,68.0,64.0,87,29.93,10.0,North,8.1,-,N/A,,Overcast,350,2012-02-06 06:53:00
9:53 PM,68.0,63.0,84,29.94,10.0,West,4.6,-,N/A,,Mostly Cloudy,270,2012-02-06 07:53:00
10:53 PM,66.9,63.0,87,29.94,10.0,West,6.9,-,N/A,,Overcast,280,2012-02-06 08:53:00
11:53 PM,66.9,63.0,87,29.93,10.0,West,3.5,-,N/A,,Overcast,260,2012-02-06 09:53:00